GW5532 Weather Reports


Display with metric or nautical units.
time (UTC)temp
F
wind
direction
speed
MPH
gust
MPH
rain 1hr
in
rain 24hr
in
rain mn
in
humidity
%
barometer
mb
20260506222010 64 9 3.0 10.0 0.00 0.00 0.00 51 1015.5
20260506221530 63 69 3.0 9.0 0.00 0.00 0.00 51 1015.5
20260506221014 63 55 3.0 12.0 0.00 0.00 0.00 51 1015.5
20260506220510 63 15 5.0 12.0 0.00 0.00 0.00 50 1015.5
20260506220020 64 21 3.0 11.0 0.00 0.00 0.00 50 1015.5
20260506215508 64 31 3.0 11.0 0.00 0.00 0.00 50 1015.4
20260506215006 63 25 3.0 11.0 0.00 0.00 0.00 50 1015.4
20260506214503 65 79 7.0 11.0 0.00 0.00 0.00 49 1015.4
20260506214004 67 76 3.0 14.0 0.00 0.00 0.00 48 1015.3
20260506213503 66 78 6.0 14.0 0.00 0.00 0.00 47 1015.3
20260506213008 65 331 5.0 12.0 0.00 0.00 0.00 49 1015.4
20260506212506 64 30 3.0 12.0 0.00 0.00 0.00 50 1015.4
20260506212004 64 229 3.0 11.0 0.00 0.00 0.00 48 1015.5
20260506211501 65 57 5.0 12.0 0.00 0.00 0.00 48 1015.5
20260506211003 64 80 6.0 13.0 0.00 0.00 0.00 48 1015.5
20260506210503 66 86 5.0 13.0 0.00 0.00 0.00 48 1015.4
20260506210003 67 34 5.0 12.0 0.00 0.00 0.00 46 1015.4
20260506205502 66 49 3.0 12.0 0.00 0.00 0.00 48 1015.4
20260506205002 66 13 3.0 11.0 0.00 0.00 0.00 49 1015.5
20260506204506 64 352 3.0 14.0 0.00 0.00 0.00 49 1015.5
20260506204003 66 342 6.0 18.0 0.00 0.00 0.00 48 1015.4
20260506203502 65 78 9.0 18.0 0.00 0.00 0.00 47 1015.4
20260506203003 65 36 4.0 12.0 0.00 0.00 0.00 48 1015.4
20260506202502 65 345 5.0 12.0 0.00 0.00 0.00 48 1015.5
20260506202004 65 348 3.0 17.0 0.00 0.00 0.00 48 1015.6
20260506201504 64 46 5.0 17.0 0.00 0.00 0.00 49 1015.6
20260506201004 65 80 3.0 12.0 0.00 0.00 0.00 49 1015.7
20260506200503 65 352 3.0 13.0 0.00 0.00 0.00 50 1015.7
20260506200004 65 33 6.0 13.0 0.00 0.00 0.00 48 1015.7
20260506195502 65 352 3.0 12.0 0.00 0.00 0.00 50 1015.7
20260506195003 64 22 6.0 14.0 0.00 0.00 0.00 50 1015.7
20260506194503 64 352 6.0 14.0 0.00 0.00 0.00 49 1015.8
20260506194003 64 105 6.0 13.0 0.00 0.00 0.00 48 1015.7
20260506193504 64 328 5.0 13.0 0.00 0.00 0.00 49 1015.6
20260506193006 63 45 5.0 13.0 0.00 0.00 0.00 50 1015.8
20260506192503 63 338 4.0 13.0 0.00 0.00 0.00 50 1015.7
20260506192003 64 94 6.0 14.0 0.00 0.00 0.00 48 1015.7
20260506191506 63 11 5.0 14.0 0.00 0.00 0.00 52 1015.8
20260506191003 63 83 4.0 13.0 0.00 0.00 0.00 49 1015.8
20260506190507 63 352 5.0 13.0 0.00 0.00 0.00 50 1016.0
20260506190008 62 352 6.0 11.0 0.00 0.00 0.00 51 1016.0
20260506185503 62 76 4.0 12.0 0.00 0.00 0.00 53 1016.1
20260506185003 62 9 6.0 13.0 0.00 0.00 0.00 53 1016.3
20260506184507 61 77 6.0 13.0 0.00 0.00 0.00 53 1016.2
20260506184003 61 20 5.0 13.0 0.00 0.00 0.00 54 1016.5
20260506183503 61 47 4.0 16.0 0.00 0.00 0.00 53 1016.6
20260506183007 60 349 4.0 16.0 0.00 0.00 0.00 55 1016.6
20260506182502 60 70 5.0 13.0 0.00 0.00 0.00 54 1016.7
20260506182010 61 49 3.0 14.0 0.00 0.00 0.00 54 1016.8
20260506181508 61 34 5.0 14.0 0.00 0.00 0.00 54 1017.0
20260506181003 60 330 4.0 12.0 0.00 0.00 0.00 57 1017.2
20260506180506 59 5 3.0 11.0 0.00 0.00 0.00 58 1017.2
20260506180006 59 81 5.0 15.0 0.00 0.00 0.00 57 1017.1
20260506175504 58 360 8.0 15.0 0.00 0.00 0.00 59 1017.1
20260506175003 58 49 6.0 12.0 0.00 0.00 0.00 59 1017.2
20260506174507 58 76 5.0 12.0 0.00 0.00 0.00 61 1017.2
20260506174006 57 62 3.0 12.0 0.00 0.00 0.00 60 1017.3
20260506173504 58 92 6.0 12.0 0.00 0.00 0.00 59 1017.4
20260506173010 58 78 5.0 15.0 0.00 0.00 0.00 58 1017.4
20260506172504 57 78 6.0 15.0 0.00 0.00 0.00 60 1017.4
20260506172003 57 71 7.0 15.0 0.00 0.00 0.00 60 1017.4
20260506171507 57 69 8.0 12.0 0.00 0.00 0.00 59 1017.4
20260506171005 57 77 4.0 15.0 0.00 0.00 0.00 60 1017.5
20260506170504 57 25 4.0 15.0 0.00 0.00 0.00 59 1017.5
20260506170008 57 95 6.0 15.0 0.00 0.00 0.00 58 1017.8
20260506165503 58 71 7.0 14.0 0.00 0.00 0.00 58 1017.5
20260506165003 58 52 5.0 15.0 0.00 0.00 0.00 58 1017.4
20260506164509 58 38 5.0 15.0 0.00 0.00 0.00 60 1017.4
20260506164003 57 91 7.0 15.0 0.00 0.00 0.00 59 1017.4
20260506163507 57 83 7.0 13.0 0.00 0.00 0.00 58 1017.5
20260506163018 57 94 7.0 13.0 0.00 0.00 0.00 59 1017.6
20260506162503 57 73 5.0 13.0 0.00 0.00 0.00 59 1017.7
20260506162011 56 57 4.0 14.0 0.00 0.00 0.00 61 1017.7
20260506161519 56 63 8.0 14.0 0.00 0.00 0.00 63 1017.9
20260506161003 55 80 6.0 13.0 0.00 0.00 0.00 62 1017.7
20260506160505 55 59 4.0 15.0 0.00 0.00 0.00 62 1017.8
20260506160013 55 82 7.0 15.0 0.00 0.00 0.00 63 1017.7
20260506155511 54 23 5.0 15.0 0.00 0.00 0.00 64 1017.6
20260506155003 53 325 7.0 15.0 0.00 0.00 0.00 64 1017.7
20260506154508 54 19 7.0 14.0 0.00 0.00 0.00 65 1017.6
20260506154005 54 64 6.0 12.0 0.00 0.00 0.00 66 1017.5
20260506153506 53 46 3.0 11.0 0.00 0.00 0.00 68 1017.4
20260506153011 52 57 6.0 12.0 0.00 0.00 0.00 67 1017.4
20260506152505 52 337 6.0 12.0 0.00 0.00 0.00 68 1017.3
20260506152006 52 32 5.0 14.0 0.00 0.00 0.00 68 1017.2
20260506151511 52 21 6.0 14.0 0.00 0.00 0.00 68 1017.2
20260506151006 52 5 6.0 12.0 0.00 0.00 0.00 68 1017.1
20260506150507 51 360 4.0 12.0 0.00 0.00 0.00 70 1017.1
20260506150012 51 94 5.0 15.0 0.00 0.00 0.00 70 1017.2
20260506145506 51 317 6.0 13.0 0.00 0.00 0.00 70 1016.8
20260506145004 51 318 5.0 12.0 0.00 0.00 0.00 72 1016.6
20260506144512 51 28 5.0 12.0 0.00 0.00 0.00 72 1016.4
20260506144006 51 52 3.0 12.0 0.00 0.00 0.00 72 1016.3
20260506143507 50 47 4.0 14.0 0.00 0.00 0.00 73 1016.1
20260506143012 50 360 6.0 14.0 0.00 0.00 0.00 73 1016.0
20260506142507 50 5 6.0 15.0 0.00 0.00 0.00 73 1016.1
20260506142007 50 227 6.0 19.0 0.00 0.00 0.00 73 1016.2
20260506141512 50 13 7.0 19.0 0.00 0.00 0.00 73 1016.2
20260506141006 50 88 7.0 18.0 0.00 0.00 0.00 73 1016.2
20260506140506 49 26 4.0 17.0 0.00 0.00 0.00 74 1016.3
20260506140030 49 291 8.0 17.0 0.00 0.00 0.00 75 1016.3
20260506135507 49 360 5.0 12.0 0.00 0.00 0.00 74 1016.3
20260506135011 49 346 4.0 12.0 0.00 0.00 0.00 75 1016.2
20260506134527 49 61 5.0 13.0 0.00 0.00 0.00 75 1016.4
20260506134007 49 78 4.0 13.0 0.00 0.00 0.00 75 1016.3
20260506133504 49 348 3.0 13.0 0.00 0.00 0.00 75 1016.4
20260506133015 48 24 4.0 13.0 0.00 0.00 0.00 75 1016.4
20260506132504 49 352 5.0 13.0 0.00 0.00 0.00 75 1016.4
20260506132005 49 360 5.0 11.0 0.00 0.00 0.00 75 1016.4
20260506131515 48 40 4.0 11.0 0.00 0.00 0.00 75 1016.2
20260506131007 48 348 5.0 12.0 0.00 0.00 0.00 75 1016.3
20260506130507 48 346 5.0 12.0 0.00 0.00 0.00 75 1016.1
20260506130018 48 45 3.0 12.0 0.00 0.00 0.00 74 1015.9
20260506125506 48 11 4.0 12.0 0.00 0.00 0.00 74 1015.8
20260506125006 48 22 4.0 10.0 0.00 0.00 0.00 74 1015.7
20260506124516 48 40 2.0 10.0 0.00 0.00 0.00 74 1015.7
20260506124006 48 26 5.0 10.0 0.00 0.00 0.00 74 1015.6
20260506123510 48 22 2.0 12.0 0.00 0.00 0.00 74 1015.4
20260506123028 48 67 5.0 12.0 0.00 0.00 0.00 74 1015.3
20260506122511 48 74 3.0 11.0 0.00 0.00 0.00 74 1015.3
20260506122012 48 344 3.0 11.0 0.00 0.00 0.00 74 1015.5
20260506121530 48 348 4.0 10.0 0.00 0.00 0.00 73 1015.3
20260506121009 48 9 5.0 10.0 0.00 0.00 0.00 73 1015.3
20260506120510 48 344 3.0 10.0 0.00 0.00 0.00 74 1015.4
20260506120028 48 33 3.0 10.0 0.00 0.00 0.00 73 1015.1
20260506115508 48 340 4.0 13.0 0.00 0.00 0.00 73 1014.8
20260506115007 48 5 4.0 13.0 0.00 0.00 0.00 73 1014.9
20260506114534 48 352 3.0 11.0 0.00 0.00 0.00 73 1014.9
20260506114007 48 17 3.0 11.0 0.00 0.00 0.00 73 1014.7
20260506113510 48 52 4.0 11.0 0.00 0.00 0.00 73 1014.7
20260506113032 48 44 5.0 11.0 0.00 0.00 0.00 73 1014.5
20260506112509 48 57 3.0 12.0 0.00 0.00 0.00 73 1014.5
20260506112014 48 341 3.0 12.0 0.00 0.00 0.00 73 1014.5
20260506111526 48 9 4.0 14.0 0.00 0.00 0.00 73 1014.7
20260506111011 48 338 5.0 14.0 0.00 0.00 0.00 72 1014.9
20260506110510 48 24 6.0 14.0 0.00 0.00 0.00 72 1015.0
20260506110029 48 352 4.0 14.0 0.00 0.00 0.00 72 1014.9
20260506105509 48 62 7.0 13.0 0.00 0.00 0.00 72 1014.9
20260506105008 48 346 4.0 13.0 0.00 0.00 0.00 72 1014.7
20260506104527 48 331 4.0 13.0 0.00 0.00 0.00 72 1014.5
20260506104006 48 5 4.0 13.0 0.00 0.00 0.00 72 1014.5
20260506103510 48 30 3.0 13.0 0.00 0.00 0.00 72 1014.4
20260506103029 49 15 5.0 13.0 0.00 0.00 0.00 72 1014.5
20260506102507 49 13 5.0 11.0 0.00 0.00 0.00 72 1014.6
20260506102010 49 352 2.0 11.0 0.00 0.00 0.00 72 1014.6
20260506101527 49 180 4.0 11.0 0.00 0.00 0.00 72 1014.6
20260506101009 49 352 3.0 15.0 0.00 0.00 0.00 72 1014.7
20260506100509 49 329 5.0 13.0 0.00 0.00 0.00 72 1014.7
20260506100034 49 328 4.0 16.0 0.00 0.00 0.00 72 1014.5
20260506095510 49 10 4.0 16.0 0.00 0.00 0.00 72 1014.4
20260506095009 49 346 4.0 10.0 0.00 0.00 0.00 72 1014.3
20260506094528 49 19 4.0 10.0 0.00 0.00 0.00 72 1014.1
20260506094006 49 352 4.0 11.0 0.00 0.00 0.00 72 1014.4
20260506093507 49 346 3.0 11.0 0.00 0.00 0.00 72 1014.3
20260506093030 49 33 3.0 11.0 0.00 0.00 0.00 72 1014.3
20260506092512 49 15 4.0 9.0 0.00 0.00 0.00 72 1014.1
20260506092010 49 60 4.0 9.0 0.00 0.00 0.00 71 1014.3
20260506091530 49 328 2.0 9.0 0.00 0.00 0.00 71 1014.2
20260506091010 49 9 3.0 10.0 0.00 0.00 0.00 71 1014.2
20260506090510 49 65 3.0 10.0 0.00 0.00 0.00 71 1013.9
20260506090027 49 11 3.0 15.0 0.00 0.00 0.00 71 1013.9
20260506085509 49 24 6.0 15.0 0.00 0.00 0.00 70 1013.7
20260506085006 49 17 4.0 13.0 0.00 0.00 0.00 70 1013.4
20260506084528 49 340 3.0 12.0 0.00 0.00 0.00 70 1013.6
20260506084010 49 5 3.0 10.0 0.00 0.00 0.00 70 1013.6
20260506083509 49 9 2.0 13.0 0.00 0.00 0.00 70 1013.7
20260506083019 49 99 2.0 13.0 0.00 0.00 0.00 70 1013.7
20260506082507 49 16 3.0 10.0 0.00 0.00 0.00 70 1013.5
20260506082007 49 348 3.0 10.0 0.00 0.00 0.00 69 1013.2
20260506081528 49 349 2.0 8.0 0.00 0.00 0.00 69 1012.9
20260506081010 49 342 3.0 9.0 0.00 0.00 0.00 69 1012.8
20260506080507 49 11 3.0 10.0 0.00 0.00 0.00 68 1012.5
20260506073510 49 352 4.0 13.0 0.00 0.00 0.00 66 1011.8
20260506073020 49 351 4.0 17.0 0.00 0.00 0.00 65 1012.0
20260506072507 49 58 7.0 17.0 0.00 0.00 0.00 65 1012.1
20260506072008 49 349 5.0 11.0 0.00 0.00 0.00 65 1012.1
20260506071526 49 69 5.0 14.0 0.00 0.00 0.00 65 1012.0
20260506071008 49 348 4.0 14.0 0.00 0.00 0.00 65 1012.3
20260506070504 49 19 4.0 13.0 0.00 0.00 0.00 65 1012.3
20260506062508 49 313 3.0 12.0 0.00 0.00 0.00 69 1012.3
20260506062017 49 352 3.0 9.0 0.00 0.00 0.00 69 1012.4
20260506061534 49 57 4.0 11.0 0.00 0.00 0.00 70 1012.3
20260506061011 49 32 3.0 11.0 0.00 0.00 0.00 71 1012.5
20260506060508 49 61 2.0 10.0 0.00 0.00 0.00 72 1012.4
20260506051013 49 44 5.0 13.0 0.00 0.00 0.00 75 1012.2
20260506050504 49 339 5.0 13.0 0.00 0.00 0.00 75 1012.5
20260506045007 49 51 3.0 11.0 0.00 0.00 0.00 76 1012.7
20260506044520 49 91 4.0 13.0 0.00 0.00 0.00 76 1012.5
20260506044013 49 33 4.0 13.0 0.00 0.00 0.00 77 1012.5
20260506043511 49 346 4.0 10.0 0.00 0.00 0.00 78 1012.4
20260506043025 49 5 3.0 9.0 0.00 0.00 0.00 79 1012.4
20260506042507 49 342 3.0 9.0 0.00 0.00 0.00 79 1012.5
20260506042012 49 5 4.0 11.0 0.00 0.00 0.00 80 1012.5
20260506041524 49 46 4.0 10.0 0.00 0.00 0.00 80 1012.5
20260506041003 49 35 4.0 9.0 0.00 0.00 0.00 80 1012.5
20260506040508 49 19 3.0 10.0 0.00 0.00 0.00 80 1012.4
20260506040021 49 317 2.0 12.0 0.00 0.00 0.00 80 1012.5
20260506035508 49 70 4.0 12.0 0.00 0.00 0.00 80 1012.5
20260506035008 49 82 5.0 12.0 0.00 0.00 0.00 80 1012.5
20260506034522 49 19 3.0 11.0 0.00 0.00 0.00 80 1012.5
20260506034010 49 340 3.0 11.0 0.00 0.00 0.00 80 1012.3
20260506033509 49 93 3.0 11.0 0.00 0.00 0.00 80 1012.4
20260506033027 49 13 4.0 13.0 0.00 0.00 0.00 79 1012.3
20260506032511 49 322 4.0 15.0 0.00 0.00 0.00 79 1012.2
20260506032007 49 328 5.0 15.0 0.00 0.00 0.00 79 1012.1
20260506031534 49 360 5.0 16.0 0.00 0.00 0.00 79 1012.1
20260506031006 49 171 5.0 16.0 0.00 0.00 0.00 79 1011.8
20260506030506 50 59 6.0 12.0 0.00 0.00 0.00 79 1011.8
20260506030019 50 94 3.0 11.0 0.00 0.00 0.00 79 1011.7
20260506025508 50 13 4.0 12.0 0.00 0.00 0.00 79 1011.7
20260506025006 50 352 5.0 12.0 0.00 0.00 0.00 79 1011.7
20260506024535 50 10 5.0 13.0 0.00 0.00 0.00 79 1011.5
20260506024007 50 329 5.0 13.0 0.00 0.00 0.00 79 1011.5
20260506023503 50 32 2.0 12.0 0.00 0.00 0.00 79 1011.4
20260506023008 50 83 4.0 13.0 0.00 0.00 0.00 78 1011.3
20260506022506 50 34 6.0 13.0 0.00 0.00 0.00 78 1011.0
20260506022008 50 93 6.0 16.0 0.00 0.00 0.00 78 1011.1
20260506021514 50 289 6.0 16.0 0.00 0.00 0.00 78 1011.2
20260506021007 50 352 6.0 16.0 0.00 0.00 0.00 77 1011.0
20260506020505 50 45 4.0 16.0 0.00 0.00 0.00 77 1011.0
20260506020005 50 32 4.0 13.0 0.00 0.00 0.00 77 1010.8
20260506015506 51 340 4.0 13.0 0.00 0.00 0.00 77 1010.7
20260506015004 51 5 5.0 13.0 0.00 0.00 0.00 76 1010.7
20260506014513 51 315 4.0 13.0 0.00 0.00 0.00 76 1010.6
20260506014004 51 20 4.0 12.0 0.00 0.00 0.00 75 1010.6
20260506013504 51 5 4.0 12.0 0.00 0.00 0.00 74 1010.6
20260506013007 51 329 4.0 12.0 0.00 0.00 0.00 74 1010.6
20260506012505 51 352 4.0 12.0 0.00 0.00 0.00 73 1010.4
20260506012007 52 335 4.0 10.0 0.00 0.00 0.00 73 1010.1
20260506011537 52 351 2.0 8.0 0.00 0.00 0.00 73 1010.1
20260506011008 52 37 3.0 13.0 0.00 0.00 0.00 72 1010.1
20260506010513 52 350 2.0 13.0 0.00 0.00 0.00 72 1010.1
20260506010003 52 68 3.0 11.0 0.00 0.00 0.00 72 1009.9
20260506005502 52 23 3.0 11.0 0.00 0.00 0.00 72 1009.9
20260506005003 52 99 4.0 11.0 0.00 0.00 0.00 72 1009.8
20260506004506 52 13 4.0 14.0 0.00 0.00 0.00 72 1009.6
20260506004002 52 37 4.0 14.0 0.00 0.00 0.00 72 1009.5
20260506003503 52 11 4.0 10.0 0.00 0.00 0.00 73 1009.4
20260506003015 52 339 3.0 10.0 0.00 0.00 0.00 72 1009.3
20260506002509 53 40 4.0 10.0 0.00 0.00 0.00 73 1009.3
20260506002011 53 84 2.0 10.0 0.00 0.00 0.00 73 1009.3
20260506001519 53 360 4.0 10.0 0.00 0.00 0.00 73 1009.2
20260506001007 53 348 4.0 11.0 0.00 0.00 0.00 73 1009.2
20260506000511 53 75 5.0 11.0 0.00 0.00 0.00 72 1009.3
20260506000004 53 336 3.0 12.0 0.00 0.00 0.00 73 1009.1
20260505235504 53 22 3.0 12.0 0.00 0.00 0.00 73 1009.3
20260505235003 54 5 4.0 11.0 0.00 0.00 0.00 73 1009.2
20260505234515 53 17 5.0 14.0 0.00 0.00 0.00 73 1009.3
20260505234008 54 86 6.0 14.0 0.00 0.00 0.00 73 1009.1
20260505233504 53 15 3.0 15.0 0.00 0.00 0.00 73 1009.1
20260505233016 53 17 7.0 15.0 0.00 0.00 0.00 73 1009.4
20260505232510 54 294 6.0 14.0 0.00 0.00 0.00 73 1009.3
20260505232009 54 17 4.0 16.0 0.00 0.00 0.00 73 1009.3
20260505231522 54 27 4.0 16.0 0.00 0.00 0.00 72 1009.3
20260505231008 54 74 5.0 16.0 0.00 0.00 0.00 72 1009.0
20260505230502 54 352 5.0 14.0 0.00 0.00 0.00 72 1009.1
20260505230009 54 344 3.0 14.0 0.00 0.00 0.00 73 1009.1
20260505225505 54 338 3.0 13.0 0.00 0.00 0.00 73 1009.1
20260505225003 54 360 3.0 13.0 0.00 0.00 0.00 73 1009.4
20260505224515 54 119 4.0 11.0 0.00 0.00 0.00 73 1009.1
20260505224006 54 352 2.0 17.0 0.00 0.00 0.00 73 1009.0
20260505223506 54 163 5.0 17.0 0.00 0.00 0.00 73 1008.9
20260505223023 55 334 5.0 17.0 0.00 0.00 0.00 73 1008.9
20260505222508 55 98 5.0 13.0 0.00 0.00 0.00 73 1008.8